Regional Weather Roundup
Issued by NWS State College, PA

Current Version | Previous Version | Text Only | Print | Product List | Glossary On
Versions: 1 2 3 4 5 6 7 8 9 10 11 12 13 14 15 16 17 18 19 20 21 22 23 24 25 26 27 28 29 30 31 32 33 34 35 36 37 38 39 40 41 42 43 44 45 46 47 48 49 50
000
ASUS41 KCTP 242310
RWRCTP

REGIONAL WEATHER ROUNDUP
NATIONAL WEATHER SERVICE STATE COLLEGE PA
700 PM EDT FRI JUN 24 2016

Note: "fair" indicates few or no clouds below 12,000 feet with no
significant weather and/or obstructions to visibility.

* = STATION THAT DOES NOT REPORT PRECIPITATION /E.G. RAIN...SNOW...ETC/
    THUNDER OR FOG.

PAZ002>004-007>009-013>016-020>023-029>032-250000-
WESTERN PENNSYLVANIA

CITY           SKY/WX    TMP DP  RH WIND       PRES   REMARKS
ERIE           SUNNY     79  46  31 NE10      30.07R
MEADVILLE      SUNNY     75  52  44 N6        30.08R
FRANKLIN*      SUNNY     77  55  47 NE5       30.10S
NEW CASTLE     FAIR      81  61  50 NE7       30.05S
BEAVER COUNTY  MOSUNNY   81  61  50 CALM      30.05S
BUTLER*        SUNNY     79  61  53 NE7       30.07S
PITTSBURGH INT MOSUNNY   81  62  52 E6        30.04S
PITTSBURGH     SUNNY     80  61  52 VRB3      30.03S
INDIANA*       MOSUNNY   77  63  61 E6        30.09R
LATROBE        PTSUNNY   77  66  69 SE9       30.04S
WASHINGTON CO* MOSUNNY   79  64  61 E6        30.05R
$$

PAZ004>006-010>012-017>019-024>028-033>037-041-042-045-046-049>053-250000-
CENTRAL PENNSYLVANIA

CITY           SKY/WX    TMP DP  RH WIND       PRES   REMARKS
BRADFORD       SUNNY     75  52  44 SE5       30.10S
DUBOIS         SUNNY     76  57  51 E8        30.09R
CLEARFIELD     SUNNY     76  58  53 E8        30.09R
JOHNSTOWN      SUNNY     73  58  59 E6        30.09R
ALTOONA        MOSUNNY   77  61  57 E6        30.07R
STATE COLLEGE  MOSUNNY   75  59  57 NE9       30.07S
WILLIAMSPORT   MOSUNNY   81  55  40 CALM      30.03S
SELINSGROVE    MOSUNNY   81  60  48 NE9       30.04R
FT INDIANTOWN  CLOUDY    73  65  75 E12       30.05R
CAPITAL CITY   PTSUNNY   78  64  61 SE13      30.02R THUNDER
HARRISBURG     PTSUNNY   76  66  71 SE13      30.01R THUNDER
YORK           PTSUNNY   73  65  75 SE10      30.03R
$$

PAZ038>040-043-044-047-048-054-055-060>062-067>071-250000-
EASTERN PENNSYLVANIA

CITY           SKY/WX    TMP DP  RH WIND       PRES   REMARKS
SCRANTON       PTSUNNY   79  56  45 S5        30.06R
MOUNT POCONO   CLOUDY    71  56  58 SE7       30.12R
ALLENTOWN      CLOUDY    80  58  46 SE12      30.05R
QUAKERTOWN*    CLOUDY    77  63  61 E7        30.07R
READING        LGT RAIN  72  66  81 N7        30.05R
LANCASTER      CLOUDY    75  67  76 SE8       30.03R
COATESVILLE    PTCLDY    73  66  78 VRB6      30.07R
POTTSTOWN      MOSUNNY   76  58  53 E5        30.07R
BLUE BELL      SUNNY     73  61  64 E5        30.05R
DOYLESTOWN     MOSUNNY   74  59  59 VRB3      30.05S
WILLOW GROVE   NOT AVBL
NORTH PHILA    MOSUNNY   78  62  57 E10       30.06R
PHILADELPHIA   PTSUNNY   77  63  61 E9        30.05R
$$




USA.gov is the U.S. government's official web portal to all federal, state and local government web resources and services.